| time (UTC) | temp F | wind direction | speed MPH | gust MPH | rain 1hr in | rain 24hr in | rain mn in | humidity % | barometer mb |
| 20260505124853 | 69 | 219 | 5.0 | 10.0 | 0.00 | 0.00 | 0.00 | 63 | 1012.3 |
| 20260505124353 | 69 | 221 | 3.0 | 10.0 | 0.00 | 0.00 | 0.00 | 63 | 1012.3 |
| 20260505123853 | 69 | 223 | 3.0 | 10.0 | 0.00 | 0.00 | 0.00 | 63 | 1012.3 |
| 20260505123352 | 69 | 159 | 2.0 | 10.0 | 0.00 | 0.00 | 0.00 | 63 | 1012.4 |
| 20260505122852 | 69 | 214 | 1.0 | 10.0 | 0.00 | 0.00 | 0.00 | 63 | 1012.2 |
| 20260505122352 | 69 | 217 | 3.0 | 10.0 | 0.00 | 0.00 | 0.00 | 62 | 1012.3 |
| 20260505121852 | 69 | 214 | 1.0 | 8.0 | 0.00 | 0.00 | 0.00 | 62 | 1012.3 |
| 20260505121352 | 69 | 207 | 3.0 | 8.0 | 0.00 | 0.00 | 0.00 | 62 | 1012.2 |
| 20260505120852 | 69 | 225 | 0.0 | 8.0 | 0.00 | 0.00 | 0.00 | 63 | 1012.2 |
| 20260505120351 | 68 | 16 | 1.0 | 8.0 | 0.00 | 0.00 | 0.00 | 63 | 1012.3 |
| 20260505115851 | 68 | 304 | 1.0 | 8.0 | 0.00 | 0.00 | 0.00 | 63 | 1012.1 |
| 20260505115351 | 67 | 229 | 1.0 | 8.0 | 0.00 | 0.00 | 0.00 | 65 | 1012.2 |
| 20260505114851 | 66 | 217 | 2.0 | 8.0 | 0.00 | 0.00 | 0.00 | 66 | 1012.2 |
| 20260505114351 | 66 | 231 | 0.0 | 8.0 | 0.00 | 0.00 | 0.00 | 67 | 1012.3 |
| 20260505113851 | 66 | 222 | 0.0 | 8.0 | 0.00 | 0.00 | 0.00 | 67 | 1012.3 |
| 20260505113351 | 66 | 214 | 0.0 | 8.0 | 0.00 | 0.00 | 0.00 | 68 | 1012.3 |
| 20260505112850 | 65 | 214 | 0.0 | 8.0 | 0.00 | 0.00 | 0.00 | 69 | 1012.3 |
| 20260505112350 | 64 | 248 | 1.0 | 8.0 | 0.00 | 0.00 | 0.00 | 70 | 1012.3 |
| 20260505111850 | 63 | 221 | 1.0 | 8.0 | 0.00 | 0.00 | 0.00 | 71 | 1012.3 |
| 20260505111350 | 63 | 224 | 3.0 | 8.0 | 0.00 | 0.00 | 0.00 | 72 | 1012.2 |
| 20260505110850 | 62 | 202 | 2.0 | 8.0 | 0.00 | 0.00 | 0.00 | 73 | 1012.3 |
| 20260505110350 | 62 | 217 | 2.0 | 8.0 | 0.00 | 0.00 | 0.00 | 74 | 1012.2 |
| 20260505101848 | 60 | 262 | 0.0 | 8.0 | 0.00 | 0.00 | 0.00 | 77 | 1012.3 |
| 20260505101348 | 60 | 217 | 1.0 | 8.0 | 0.00 | 0.00 | 0.00 | 77 | 1012.1 |
| 20260505100848 | 60 | 275 | 0.0 | 8.0 | 0.00 | 0.00 | 0.00 | 77 | 1012.0 |
| 20260505100348 | 59 | 234 | 0.0 | 8.0 | 0.00 | 0.00 | 0.00 | 78 | 1011.7 |
| 20260505095848 | 59 | 240 | 0.0 | 8.0 | 0.00 | 0.00 | 0.00 | 78 | 1011.5 |
| 20260505095347 | 59 | 221 | 0.0 | 8.0 | 0.00 | 0.00 | 0.00 | 78 | 1011.5 |
| 20260505094848 | 59 | 226 | 0.0 | 8.0 | 0.00 | 0.00 | 0.00 | 78 | 1011.4 |
| 20260505094347 | 59 | 214 | 1.0 | 8.0 | 0.00 | 0.00 | 0.00 | 77 | 1011.3 |
| 20260505093847 | 59 | 227 | 1.0 | 8.0 | 0.00 | 0.00 | 0.00 | 77 | 1011.2 |
| 20260505093347 | 59 | 200 | 2.0 | 8.0 | 0.00 | 0.00 | 0.00 | 77 | 1011.2 |
| 20260505092847 | 59 | 222 | 1.0 | 8.0 | 0.00 | 0.00 | 0.00 | 77 | 1011.3 |
| 20260505092347 | 59 | 215 | 0.0 | 8.0 | 0.00 | 0.00 | 0.00 | 77 | 1011.2 |
| 20260505091846 | 59 | 267 | 2.0 | 8.0 | 0.00 | 0.00 | 0.00 | 77 | 1011.2 |
| 20260505091346 | 59 | 222 | 0.0 | 7.0 | 0.00 | 0.00 | 0.00 | 77 | 1011.2 |
| 20260505090846 | 59 | 236 | 0.0 | 7.0 | 0.00 | 0.00 | 0.00 | 77 | 1011.2 |
| 20260505090346 | 59 | 223 | 1.0 | 7.0 | 0.00 | 0.00 | 0.00 | 78 | 1011.1 |
| 20260505085846 | 59 | 219 | 1.0 | 7.0 | 0.00 | 0.00 | 0.00 | 78 | 1011.1 |
| 20260505085346 | 58 | 224 | 1.0 | 7.0 | 0.00 | 0.00 | 0.00 | 78 | 1011.2 |
| 20260505084845 | 58 | 225 | 1.0 | 7.0 | 0.00 | 0.00 | 0.00 | 78 | 1011.3 |
| 20260505084345 | 58 | 216 | 1.0 | 7.0 | 0.00 | 0.00 | 0.00 | 78 | 1011.3 |
| 20260505083845 | 58 | 190 | 0.0 | 7.0 | 0.00 | 0.00 | 0.00 | 77 | 1011.3 |
| 20260505083345 | 58 | 214 | 1.0 | 7.0 | 0.00 | 0.00 | 0.00 | 77 | 1011.3 |
| 20260505082845 | 58 | 220 | 1.0 | 7.0 | 0.00 | 0.00 | 0.00 | 77 | 1011.4 |
| 20260505082345 | 58 | 209 | 0.0 | 7.0 | 0.00 | 0.00 | 0.00 | 77 | 1011.3 |
| 20260505081844 | 58 | 209 | 0.0 | 7.0 | 0.00 | 0.00 | 0.00 | 77 | 1011.4 |
| 20260505081344 | 58 | 202 | 0.0 | 7.0 | 0.00 | 0.00 | 0.00 | 76 | 1011.4 |
| 20260505080844 | 58 | 241 | 1.0 | 7.0 | 0.00 | 0.00 | 0.00 | 76 | 1011.4 |
| 20260505080344 | 58 | 241 | 0.0 | 7.0 | 0.00 | 0.00 | 0.00 | 76 | 1011.4 |
| 20260505075844 | 58 | 241 | 0.0 | 7.0 | 0.00 | 0.00 | 0.00 | 76 | 1011.4 |
| 20260505075344 | 58 | 241 | 0.0 | 7.0 | 0.00 | 0.00 | 0.00 | 76 | 1011.4 |
| 20260505074844 | 58 | 233 | 0.0 | 7.0 | 0.00 | 0.00 | 0.00 | 75 | 1011.3 |
| 20260505074343 | 58 | 233 | 0.0 | 7.0 | 0.00 | 0.00 | 0.00 | 76 | 1011.3 |
| 20260505073843 | 58 | 233 | 0.0 | 7.0 | 0.00 | 0.00 | 0.00 | 75 | 1011.3 |
| 20260505073343 | 58 | 233 | 0.0 | 7.0 | 0.00 | 0.00 | 0.00 | 75 | 1011.2 |
| 20260505072843 | 58 | 233 | 0.0 | 7.0 | 0.00 | 0.00 | 0.00 | 75 | 1011.2 |
| 20260505072343 | 58 | 233 | 0.0 | 7.0 | 0.00 | 0.00 | 0.00 | 75 | 1011.2 |
| 20260505071843 | 59 | 233 | 0.0 | 7.0 | 0.00 | 0.00 | 0.00 | 74 | 1011.1 |
| 20260505071342 | 59 | 233 | 0.0 | 7.0 | 0.00 | 0.00 | 0.00 | 74 | 1011.1 |
| 20260505070842 | 59 | 233 | 0.0 | 7.0 | 0.00 | 0.00 | 0.00 | 73 | 1011.2 |
| 20260505070342 | 59 | 235 | 0.0 | 7.0 | 0.00 | 0.00 | 0.00 | 73 | 1011.2 |
| 20260505065842 | 59 | 231 | 0.0 | 7.0 | 0.00 | 0.00 | 0.00 | 73 | 1011.2 |
| 20260505065342 | 59 | 219 | 0.0 | 7.0 | 0.00 | 0.00 | 0.00 | 73 | 1011.2 |
| 20260505064842 | 59 | 221 | 0.0 | 7.0 | 0.00 | 0.00 | 0.00 | 72 | 1011.2 |
| 20260505064341 | 60 | 221 | 0.0 | 7.0 | 0.00 | 0.00 | 0.00 | 72 | 1011.2 |
| 20260505063841 | 60 | 222 | 1.0 | 7.0 | 0.00 | 0.00 | 0.00 | 72 | 1011.2 |
| 20260505063341 | 60 | 209 | 0.0 | 7.0 | 0.00 | 0.00 | 0.00 | 72 | 1011.1 |
| 20260505062841 | 60 | 240 | 0.0 | 7.0 | 0.00 | 0.00 | 0.00 | 71 | 1011.2 |
| 20260505062341 | 60 | 216 | 0.0 | 7.0 | 0.00 | 0.00 | 0.00 | 71 | 1011.2 |
| 20260505061841 | 60 | 212 | 1.0 | 7.0 | 0.00 | 0.00 | 0.00 | 71 | 1011.3 |
| 20260505061340 | 60 | 224 | 1.0 | 7.0 | 0.00 | 0.00 | 0.00 | 71 | 1011.3 |
| 20260505060840 | 60 | 211 | 1.0 | 7.0 | 0.00 | 0.00 | 0.00 | 71 | 1011.3 |
| 20260505060340 | 60 | 217 | 0.0 | 7.0 | 0.00 | 0.00 | 0.00 | 70 | 1011.2 |
| 20260505055840 | 60 | 217 | 1.0 | 7.0 | 0.00 | 0.00 | 0.00 | 70 | 1011.3 |
| 20260505055340 | 60 | 223 | 1.0 | 7.0 | 0.00 | 0.00 | 0.00 | 70 | 1011.3 |
| 20260505054840 | 61 | 224 | 2.0 | 7.0 | 0.00 | 0.00 | 0.00 | 70 | 1011.3 |
| 20260505054339 | 61 | 216 | 1.0 | 7.0 | 0.00 | 0.00 | 0.00 | 70 | 1011.3 |
| 20260505053839 | 60 | 228 | 2.0 | 7.0 | 0.00 | 0.00 | 0.00 | 70 | 1011.3 |
| 20260505053339 | 60 | 212 | 1.0 | 7.0 | 0.00 | 0.00 | 0.00 | 70 | 1011.3 |
| 20260505052839 | 60 | 209 | 1.0 | 7.0 | 0.00 | 0.00 | 0.00 | 69 | 1011.4 |
| 20260505052339 | 61 | 209 | 1.0 | 7.0 | 0.00 | 0.00 | 0.00 | 69 | 1011.4 |
| 20260505051839 | 61 | 157 | 1.0 | 7.0 | 0.00 | 0.00 | 0.00 | 69 | 1011.5 |
| 20260505051338 | 61 | 214 | 1.0 | 7.0 | 0.00 | 0.00 | 0.00 | 69 | 1011.6 |
| 20260505050838 | 61 | 141 | 2.0 | 7.0 | 0.00 | 0.00 | 0.00 | 69 | 1011.7 |
| 20260505050338 | 61 | 198 | 1.0 | 7.0 | 0.00 | 0.00 | 0.00 | 69 | 1011.7 |
| 20260505041337 | 60 | 212 | 3.0 | 7.0 | 0.00 | 0.00 | 0.00 | 69 | 1011.9 |
| 20260505040836 | 60 | 155 | 0.0 | 3.0 | 0.00 | 0.00 | 0.00 | 69 | 1011.9 |
| 20260505040336 | 60 | 209 | 0.0 | 2.0 | 0.00 | 0.00 | 0.00 | 69 | 1012.0 |
| 20260505035836 | 60 | 209 | 1.0 | 16.0 | 0.00 | 0.00 | 0.00 | 69 | 1012.0 |
| 20260505035336 | 60 | 209 | 0.0 | 16.0 | 0.00 | 0.00 | 0.00 | 69 | 1012.0 |
| 20260505034836 | 60 | 209 | 1.0 | 16.0 | 0.00 | 0.00 | 0.00 | 69 | 1012.0 |
| 20260505034336 | 60 | 205 | 0.0 | 16.0 | 0.00 | 0.00 | 0.00 | 69 | 1012.0 |
| 20260505033835 | 60 | 204 | 2.0 | 16.0 | 0.00 | 0.00 | 0.00 | 69 | 1012.0 |
| 20260505033335 | 60 | 224 | 1.0 | 16.0 | 0.00 | 0.00 | 0.00 | 69 | 1012.0 |
| 20260505032835 | 60 | 181 | 1.0 | 16.0 | 0.00 | 0.00 | 0.00 | 68 | 1012.0 |
| 20260505032335 | 60 | 179 | 0.0 | 16.0 | 0.00 | 0.00 | 0.00 | 68 | 1012.1 |
| 20260505031835 | 60 | 204 | 1.0 | 16.0 | 0.00 | 0.00 | 0.00 | 68 | 1012.1 |
| 20260505031335 | 60 | 142 | 0.0 | 16.0 | 0.00 | 0.00 | 0.00 | 67 | 1012.2 |
| 20260505030834 | 61 | 194 | 1.0 | 16.0 | 0.00 | 0.00 | 0.00 | 67 | 1012.2 |
| 20260505030334 | 61 | 200 | 0.0 | 16.0 | 0.00 | 0.00 | 0.00 | 66 | 1012.3 |
| 20260505025834 | 61 | 198 | 1.0 | 16.0 | 0.00 | 0.00 | 0.00 | 66 | 1012.3 |
| 20260505025334 | 61 | 208 | 1.0 | 16.0 | 0.00 | 0.00 | 0.00 | 66 | 1012.2 |
| 20260505024834 | 61 | 202 | 1.0 | 16.0 | 0.00 | 0.00 | 0.00 | 65 | 1012.3 |
| 20260505024334 | 61 | 192 | 2.0 | 16.0 | 0.00 | 0.00 | 0.00 | 65 | 1012.3 |
| 20260505023833 | 61 | 214 | 1.0 | 16.0 | 0.00 | 0.00 | 0.00 | 64 | 1012.4 |
| 20260505023333 | 61 | 160 | 1.0 | 16.0 | 0.00 | 0.00 | 0.00 | 64 | 1012.4 |
| 20260505022833 | 61 | 205 | 1.0 | 16.0 | 0.00 | 0.00 | 0.00 | 63 | 1012.5 |
| 20260505022333 | 62 | 198 | 1.0 | 16.0 | 0.00 | 0.00 | 0.00 | 63 | 1012.5 |
| 20260505021833 | 62 | 214 | 0.0 | 16.0 | 0.00 | 0.00 | 0.00 | 62 | 1012.5 |
| 20260505021333 | 62 | 206 | 1.0 | 16.0 | 0.00 | 0.00 | 0.00 | 62 | 1012.5 |
| 20260505020833 | 62 | 206 | 1.0 | 16.0 | 0.00 | 0.00 | 0.00 | 61 | 1012.6 |
| 20260505020332 | 62 | 214 | 1.0 | 16.0 | 0.00 | 0.00 | 0.00 | 61 | 1012.6 |
| 20260505015832 | 63 | 195 | 0.0 | 16.0 | 0.00 | 0.00 | 0.00 | 60 | 1012.5 |
| 20260505015332 | 63 | 204 | 2.0 | 16.0 | 0.00 | 0.00 | 0.00 | 60 | 1012.5 |
| 20260505014832 | 63 | 192 | 1.0 | 16.0 | 0.00 | 0.00 | 0.00 | 60 | 1012.3 |
| 20260505014332 | 63 | 195 | 0.0 | 16.0 | 0.00 | 0.00 | 0.00 | 60 | 1012.4 |
| 20260505013832 | 63 | 200 | 1.0 | 16.0 | 0.00 | 0.00 | 0.00 | 59 | 1012.4 |
| 20260505013331 | 63 | 149 | 1.0 | 16.0 | 0.00 | 0.00 | 0.00 | 59 | 1012.3 |
| 20260505012831 | 63 | 187 | 0.0 | 16.0 | 0.00 | 0.00 | 0.00 | 59 | 1012.4 |
| 20260505012331 | 64 | 214 | 1.0 | 16.0 | 0.00 | 0.00 | 0.00 | 58 | 1012.2 |
| 20260505011831 | 64 | 196 | 0.0 | 16.0 | 0.00 | 0.00 | 0.00 | 58 | 1012.1 |
| 20260505011331 | 64 | 212 | 1.0 | 16.0 | 0.00 | 0.00 | 0.00 | 58 | 1012.0 |
| 20260505010831 | 64 | 192 | 2.0 | 16.0 | 0.00 | 0.00 | 0.00 | 57 | 1012.0 |
| 20260505010330 | 64 | 169 | 1.0 | 16.0 | 0.00 | 0.00 | 0.00 | 57 | 1012.0 |
| 20260505005830 | 65 | 197 | 1.0 | 16.0 | 0.00 | 0.00 | 0.00 | 57 | 1012.0 |
| 20260505005330 | 65 | 209 | 3.0 | 16.0 | 0.00 | 0.00 | 0.00 | 56 | 1011.8 |
| 20260505004830 | 65 | 142 | 2.0 | 16.0 | 0.00 | 0.00 | 0.00 | 56 | 1011.8 |
| 20260505004330 | 65 | 201 | 2.0 | 16.0 | 0.00 | 0.00 | 0.00 | 55 | 1011.7 |
| 20260505003830 | 66 | 181 | 1.0 | 16.0 | 0.00 | 0.00 | 0.00 | 54 | 1011.6 |
| 20260505003329 | 66 | 213 | 2.0 | 16.0 | 0.00 | 0.00 | 0.00 | 52 | 1011.6 |
| 20260505002829 | 67 | 236 | 1.0 | 16.0 | 0.00 | 0.00 | 0.00 | 46 | 1011.5 |
| 20260505002329 | 67 | 271 | 1.0 | 16.0 | 0.00 | 0.00 | 0.00 | 45 | 1011.3 |
| 20260505001829 | 67 | 271 | 1.0 | 16.0 | 0.00 | 0.00 | 0.00 | 45 | 1011.3 |
| 20260505001329 | 68 | 271 | 0.0 | 16.0 | 0.00 | 0.00 | 0.00 | 44 | 1011.1 |
| 20260505000829 | 68 | 271 | 0.0 | 16.0 | 0.00 | 0.00 | 0.00 | 44 | 1011.1 |
| 20260505000329 | 68 | 271 | 0.0 | 16.0 | 0.00 | 0.00 | 0.00 | 43 | 1011.0 |
| 20260504235828 | 69 | 271 | 1.0 | 16.0 | 0.00 | 0.00 | 0.00 | 42 | 1010.9 |
| 20260504235328 | 69 | 285 | 1.0 | 16.0 | 0.00 | 0.00 | 0.00 | 42 | 1010.9 |
| 20260504234828 | 69 | 222 | 2.0 | 16.0 | 0.00 | 0.00 | 0.00 | 41 | 1010.8 |
| 20260504234328 | 69 | 224 | 1.0 | 16.0 | 0.00 | 0.00 | 0.00 | 41 | 1010.8 |
| 20260504233828 | 69 | 209 | 1.0 | 16.0 | 0.00 | 0.00 | 0.00 | 41 | 1010.7 |
| 20260504233328 | 69 | 225 | 2.0 | 16.0 | 0.00 | 0.00 | 0.00 | 41 | 1010.6 |
| 20260504232827 | 70 | 276 | 1.0 | 16.0 | 0.00 | 0.00 | 0.00 | 42 | 1010.5 |
| 20260504232327 | 70 | 278 | 2.0 | 16.0 | 0.00 | 0.00 | 0.00 | 41 | 1010.5 |
| 20260504231827 | 70 | 212 | 2.0 | 16.0 | 0.00 | 0.00 | 0.00 | 41 | 1010.4 |
| 20260504231327 | 70 | 230 | 1.0 | 16.0 | 0.00 | 0.00 | 0.00 | 40 | 1010.5 |
| 20260504230827 | 71 | 227 | 1.0 | 16.0 | 0.00 | 0.00 | 0.00 | 40 | 1010.3 |
| 20260504230327 | 71 | 221 | 2.0 | 16.0 | 0.00 | 0.00 | 0.00 | 39 | 1010.4 |
| 20260504225826 | 71 | 203 | 1.0 | 16.0 | 0.00 | 0.00 | 0.00 | 39 | 1010.3 |
| 20260504225326 | 71 | 217 | 1.0 | 16.0 | 0.00 | 0.00 | 0.00 | 39 | 1010.2 |
| 20260504224826 | 72 | 229 | 2.0 | 16.0 | 0.00 | 0.00 | 0.00 | 38 | 1010.3 |
| 20260504224326 | 72 | 224 | 3.0 | 16.0 | 0.00 | 0.00 | 0.00 | 38 | 1010.3 |
| 20260504223826 | 72 | 177 | 1.0 | 16.0 | 0.00 | 0.00 | 0.00 | 37 | 1010.3 |
| 20260504223326 | 73 | 206 | 2.0 | 16.0 | 0.00 | 0.00 | 0.00 | 36 | 1010.2 |
| 20260504222825 | 73 | 269 | 2.0 | 16.0 | 0.00 | 0.00 | 0.00 | 36 | 1010.2 |
| 20260504222325 | 74 | 228 | 2.0 | 16.0 | 0.00 | 0.00 | 0.00 | 35 | 1010.3 |
| 20260504221825 | 74 | 226 | 5.0 | 16.0 | 0.00 | 0.00 | 0.00 | 35 | 1010.4 |
| 20260504221325 | 75 | 274 | 1.0 | 16.0 | 0.00 | 0.00 | 0.00 | 34 | 1010.4 |
| 20260504220825 | 75 | 261 | 1.0 | 16.0 | 0.00 | 0.00 | 0.00 | 34 | 1010.4 |
| 20260504220324 | 74 | 261 | 2.0 | 16.0 | 0.00 | 0.00 | 0.00 | 34 | 1010.4 |
| 20260504215824 | 75 | 274 | 1.0 | 16.0 | 0.00 | 0.00 | 0.00 | 34 | 1010.4 |
| 20260504215324 | 75 | 285 | 2.0 | 16.0 | 0.00 | 0.00 | 0.00 | 34 | 1010.4 |
| 20260504214824 | 75 | 285 | 2.0 | 16.0 | 0.00 | 0.00 | 0.00 | 33 | 1010.5 |
| 20260504214324 | 75 | 285 | 2.0 | 16.0 | 0.00 | 0.00 | 0.00 | 33 | 1010.5 |
| 20260504213824 | 75 | 285 | 2.0 | 16.0 | 0.00 | 0.00 | 0.00 | 33 | 1010.6 |
| 20260504213323 | 75 | 268 | 2.0 | 16.0 | 0.00 | 0.00 | 0.00 | 33 | 1010.6 |
| 20260504212823 | 76 | 257 | 3.0 | 16.0 | 0.00 | 0.00 | 0.00 | 33 | 1010.6 |
| 20260504212323 | 75 | 268 | 1.0 | 16.0 | 0.00 | 0.00 | 0.00 | 33 | 1010.6 |
| 20260504211823 | 76 | 268 | 2.0 | 16.0 | 0.00 | 0.00 | 0.00 | 33 | 1010.7 |
| 20260504211323 | 76 | 237 | 1.0 | 16.0 | 0.00 | 0.00 | 0.00 | 33 | 1010.7 |
| 20260504210822 | 75 | 261 | 2.0 | 16.0 | 0.00 | 0.00 | 0.00 | 33 | 1010.6 |
| 20260504210322 | 76 | 231 | 1.0 | 16.0 | 0.00 | 0.00 | 0.00 | 33 | 1010.6 |
| 20260504205822 | 76 | 230 | 2.0 | 16.0 | 0.00 | 0.00 | 0.00 | 33 | 1010.6 |
| 20260504205322 | 75 | 216 | 1.0 | 16.0 | 0.00 | 0.00 | 0.00 | 33 | 1010.6 |
| 20260504204822 | 75 | 233 | 2.0 | 16.0 | 0.00 | 0.00 | 0.00 | 33 | 1010.7 |
| 20260504204321 | 76 | 220 | 3.0 | 16.0 | 0.00 | 0.00 | 0.00 | 33 | 1010.7 |
| 20260504203821 | 76 | 245 | 2.0 | 16.0 | 0.00 | 0.00 | 0.00 | 33 | 1010.7 |
| 20260504203321 | 76 | 271 | 3.0 | 16.0 | 0.00 | 0.00 | 0.00 | 33 | 1010.7 |
| 20260504202821 | 75 | 229 | 1.0 | 16.0 | 0.00 | 0.00 | 0.00 | 33 | 1010.7 |
| 20260504202321 | 75 | 226 | 2.0 | 16.0 | 0.00 | 0.00 | 0.00 | 34 | 1010.7 |
| 20260504201821 | 76 | 225 | 3.0 | 16.0 | 0.00 | 0.00 | 0.00 | 32 | 1010.8 |
| 20260504201320 | 76 | 257 | 1.0 | 16.0 | 0.00 | 0.00 | 0.00 | 34 | 1010.8 |
| 20260504200820 | 75 | 216 | 3.0 | 16.0 | 0.00 | 0.00 | 0.00 | 33 | 1010.8 |
| 20260504200320 | 75 | 210 | 2.0 | 16.0 | 0.00 | 0.00 | 0.00 | 33 | 1010.9 |
| 20260504195820 | 75 | 240 | 2.0 | 16.0 | 0.00 | 0.00 | 0.00 | 34 | 1010.9 |
| 20260504195320 | 75 | 218 | 2.0 | 16.0 | 0.00 | 0.00 | 0.00 | 34 | 1010.9 |
| 20260504194820 | 76 | 243 | 5.0 | 16.0 | 0.00 | 0.00 | 0.00 | 34 | 1011.0 |
| 20260504194319 | 76 | 227 | 2.0 | 16.0 | 0.00 | 0.00 | 0.00 | 35 | 1011.0 |
| 20260504193819 | 75 | 155 | 3.0 | 16.0 | 0.00 | 0.00 | 0.00 | 35 | 1011.1 |
| 20260504193319 | 75 | 286 | 5.0 | 16.0 | 0.00 | 0.00 | 0.00 | 35 | 1011.0 |
| 20260504192819 | 75 | 258 | 2.0 | 16.0 | 0.00 | 0.00 | 0.00 | 35 | 1011.1 |
| 20260504192319 | 75 | 208 | 2.0 | 16.0 | 0.00 | 0.00 | 0.00 | 34 | 1011.2 |
| 20260504191819 | 75 | 214 | 2.0 | 16.0 | 0.00 | 0.00 | 0.00 | 35 | 1011.2 |
| 20260504191318 | 75 | 209 | 3.0 | 16.0 | 0.00 | 0.00 | 0.00 | 34 | 1011.3 |
| 20260504190818 | 75 | 225 | 2.0 | 16.0 | 0.00 | 0.00 | 0.00 | 34 | 1011.3 |
| 20260504190318 | 75 | 211 | 6.0 | 16.0 | 0.00 | 0.00 | 0.00 | 35 | 1011.5 |
| 20260504185818 | 74 | 222 | 1.0 | 16.0 | 0.00 | 0.00 | 0.00 | 35 | 1011.4 |
| 20260504185318 | 74 | 208 | 3.0 | 16.0 | 0.00 | 0.00 | 0.00 | 35 | 1011.6 |
| 20260504184818 | 74 | 230 | 3.0 | 16.0 | 0.00 | 0.00 | 0.00 | 35 | 1011.7 |
| 20260504184317 | 74 | 261 | 2.0 | 16.0 | 0.00 | 0.00 | 0.00 | 35 | 1011.7 |
| 20260504183817 | 74 | 292 | 3.0 | 16.0 | 0.00 | 0.00 | 0.00 | 34 | 1011.7 |
| 20260504183317 | 74 | 282 | 2.0 | 16.0 | 0.00 | 0.00 | 0.00 | 35 | 1011.9 |
| 20260504182817 | 74 | 240 | 3.0 | 16.0 | 0.00 | 0.00 | 0.00 | 34 | 1011.8 |
| 20260504182317 | 74 | 223 | 2.0 | 16.0 | 0.00 | 0.00 | 0.00 | 35 | 1011.8 |
| 20260504181817 | 74 | 237 | 3.0 | 16.0 | 0.00 | 0.00 | 0.00 | 34 | 1011.8 |
| 20260504181316 | 74 | 114 | 1.0 | 16.0 | 0.00 | 0.00 | 0.00 | 35 | 1011.9 |
| 20260504180816 | 73 | 208 | 2.0 | 16.0 | 0.00 | 0.00 | 0.00 | 35 | 1012.1 |
| 20260504180316 | 74 | 264 | 5.0 | 16.0 | 0.00 | 0.00 | 0.00 | 35 | 1012.1 |
| 20260504175816 | 74 | 224 | 2.0 | 16.0 | 0.00 | 0.00 | 0.00 | 36 | 1012.1 |
| 20260504175316 | 73 | 232 | 5.0 | 16.0 | 0.00 | 0.00 | 0.00 | 35 | 1012.3 |
| 20260504174816 | 73 | 240 | 6.0 | 16.0 | 0.00 | 0.00 | 0.00 | 36 | 1012.4 |
| 20260504174316 | 73 | 220 | 2.0 | 16.0 | 0.00 | 0.00 | 0.00 | 36 | 1012.3 |
| 20260504173815 | 73 | 238 | 2.0 | 16.0 | 0.00 | 0.00 | 0.00 | 36 | 1012.3 |
| 20260504173315 | 72 | 210 | 2.0 | 16.0 | 0.00 | 0.00 | 0.00 | 36 | 1012.4 |
| 20260504172815 | 72 | 228 | 5.0 | 16.0 | 0.00 | 0.00 | 0.00 | 38 | 1012.5 |
| 20260504172315 | 72 | 215 | 3.0 | 16.0 | 0.00 | 0.00 | 0.00 | 38 | 1012.7 |
| 20260504171815 | 71 | 227 | 3.0 | 16.0 | 0.00 | 0.00 | 0.00 | 38 | 1012.6 |
| 20260504171315 | 72 | 222 | 8.0 | 16.0 | 0.00 | 0.00 | 0.00 | 38 | 1012.6 |
| 20260504170815 | 72 | 281 | 2.0 | 16.0 | 0.00 | 0.00 | 0.00 | 37 | 1012.8 |
| 20260504170314 | 71 | 225 | 1.0 | 16.0 | 0.00 | 0.00 | 0.00 | 38 | 1012.7 |
| 20260504160313 | 69 | 282 | 3.0 | 14.0 | 0.00 | 0.00 | 0.00 | 37 | 1013.6 |
| 20260504150811 | 68 | 238 | 5.0 | 14.0 | 0.00 | 0.00 | 0.00 | 38 | 1014.3 |
| 20260504150311 | 69 | 243 | 3.0 | 14.0 | 0.00 | 0.00 | 0.00 | 39 | 1014.2 |
| 20260504141309 | 66 | 257 | 3.0 | 14.0 | 0.00 | 0.00 | 0.00 | 45 | 1014.5 |
| 20260504140809 | 66 | 222 | 3.0 | 14.0 | 0.00 | 0.00 | 0.00 | 46 | 1014.6 |
| 20260504140309 | 66 | 223 | 3.0 | 14.0 | 0.00 | 0.00 | 0.00 | 46 | 1014.6 |